Wind_Speed
52 51 53 54 56 52 50 50 49 50 52 50 54 56 63 66 65 58 68 70 71 73 77 87 93 95 100 102 101 103 106 111 108 105 104 100 85 87 83 83 84 82 79 76
54 55 52 50 52 51 49 50 47 48 54 56 59 58 66 67 66 64 68 68 71 69 71 77 87 93 96 96 100 104 104 104 107 106 107 103 92 77 78 85 88 85 84 81
49 51 48 45 49 48 52 51 51 52 58 63 61 61 68 68 70 66 68 65 65 66 69 73 80 87 93 96 94 97 107 107 104 105 105 102 97 90 71 64 77 81 87 83
54 51 54 53 51 49 53 54 57 60 61 61 67 58 67 67 66 67 60 60 63 64 65 69 71 80 87 94 97 96 99 108 106 103 103 101 97 97 72 56 40 42 73 86
59 54 55 58 57 56 57 56 60 64 64 62 62 61 68 62 61 57 54 58 55 62 64 62 66 72 83 91 97 100 99 102 106 108 103 103 102 103 95 81 68 46 72 76
58 58 57 60 60 58 55 52 59 61 61 62 62 57 59 55 50 49 54 51 53 60 60 61 62 68 75 85 92 97 101 102 101 101 107 109 104 101 95 97 83 76 83 76
59 58 60 62 61 60 56 56 57 58 60 60 57 49 50 50 45 47 46 43 47 51 54 56 58 63 67 75 81 89 96 98 99 99 104 111 105 101 92 89 91 82 81 76
65 65 62 60 60 59 59 53 51 50 49 53 51 45 41 38 39 39 35 42 47 44 50 55 60 61 59 63 67 75 80 94 96 97 100 103 107 101 92 82 77 72 69 72
59 62 55 51 51 48 49 45 42 40 38 38 47 41 29 33 35 30 36 40 46 46 49 53 56 54 51 44 51 54 66 74 86 92 97 98 100 101 94 82 73 74 67 64
49 49 45 42 39 37 34 36 32 31 28 33 38 29 24 29 30 33 36 43 41 38 43 46 43 41 40 43 44 50 54 63 75 79 94 93 92 95 90 77 70 64 65 65
45 42 37 37 32 29 28 27 26 28 25 23 26 20 26 25 26 27 30 35 35 42 44 44 40 29 31 34 30 39 43 50 60 63 79 83 83 86 87 70 65 53 59 57
40 38 30 26 22 23 20 21 24 25 22 19 18 15 22 20 20 21 27 30 33 39 36 31 24 29 28 31 28 19 30 36 47 54 60 75 75 76 78 70 59 49 47 54
36 33 28 16 19 16 17 20 23 20 18 19 18 16 18 17 19 21 24 27 27 30 25 15 17 16 14 12 13 18 23 25 30 41 54 67 68 66 67 63 45 39 45 54
34 29 22 20 15 15 15 18 21 17 15 16 14 19 14 13 16 22 24 22 20 18 4 5 2 7 16 13 18 22 22 17 22 36 52 63 60 59 60 56 46 49 56 57
33 27 20 17 15 13 15 16 21 20 16 16 16 19 14 13 14 15 19 19 12 4 17 8 19 32 32 36 44 43 38 28 32 42 55 58 54 50 54 52 50 55 61 63
32 28 26 17 13 13 16 19 18 21 21 17 17 18 17 17 13 15 15 17 9 10 21 13 27 38 37 55 55 51 44 41 49 58 65 63 61 63 55 64 57 51 62 55
32 27 23 19 13 14 16 18 21 22 23 20 17 16 18 18 14 15 15 12 10 10 15 23 28 34 41 48 54 55 53 45 49 71 72 70 66 62 57 52 59 58 75 73
31 23 18 19 15 17 17 20 21 19 22 23 19 17 20 17 12 17 14 8 9 9 6 18 25 29 34 37 37 48 55 56 66 75 79 81 79 57 57 58 68 72 77 74
34 28 21 18 17 18 19 20 20 20 21 22 19 17 17 18 12 18 18 10 5 17 10 8 18 22 26 31 38 48 55 58 66 77 79 78 64 66 58 66 72 75 67 61
28 31 25 18 20 20 18 20 19 19 18 19 20 18 15 17 14 17 18 11 5 13 19 15 21 19 25 30 35 56 63 68 76 82 81 71 61 52 52 66 70 68 63 57
21 27 28 31 26 23 19 20 19 19 20 18 19 20 16 17 16 17 16 7 4 9 15 23 22 22 27 30 39 60 69 82 86 83 74 68 61 59 55 64 66 61 59 60
24 24 23 26 27 24 24 20 15 19 19 20 17 20 18 16 16 18 17 11 8 10 14 19 22 26 28 39 51 69 91 89 84 75 57 61 67 59 49 44 48 55 62 70
29 24 29 29 32 28 21 22 19 18 20 24 23 20 17 14 14 20 15 11 10 16 20 31 29 29 36 46 55 80 95 89 78 68 63 61 61 51 45 53 58 53 56 58
32 28 29 34 35 33 27 22 22 20 22 24 23 23 20 13 14 18 14 11 13 22 37 35 35 32 42 48 57 81 96 88 80 67 60 62 53 60 55 47 48 58 53 63
34 31 33 36 40 37 33 27 23 23 21 22 22 22 20 16 13 13 16 12 15 39 42 39 39 39 50 55 64 84 98 81 75 59 52 60 55 58 57 41 52 55 50 64
41 37 35 38 41 40 38 35 27 24 22 21 21 22 18 17 14 12 16 18 12 38 48 45 47 47 55 66 75 80 85 73 68 66 56 56 62 65 64 56 52 50 51 54
Wind_Direction
290 287 290 291 289 289 287 285 284 285 280 278 277 275 274 273 272 275 270 267 261 257 250 246 247 248 246 241 241 242 241 239 233 238 238 237 238 244 246 247 249 251 252 252
285 287 287 285 285 286 286 283 284 282 281 281 278 279 278 278 279 277 274 270 266 263 252 245 243 245 248 245 241 241 241 241 235 236 236 237 235 236 243 245 248 251 253 253
288 290 288 286 285 287 286 285 284 282 282 284 281 280 279 279 280 280 272 271 268 262 251 247 246 243 242 246 244 239 241 240 238 234 237 235 234 234 238 242 242 251 254 253
295 295 295 292 288 286 285 286 285 282 283 283 282 283 280 281 283 276 276 270 263 261 257 254 251 248 241 242 244 243 237 239 237 236 234 234 231 228 223 223 231 259 251 245
292 292 290 288 287 286 283 284 283 282 283 282 282 280 282 281 278 275 268 265 264 261 258 256 251 245 242 241 242 241 238 236 236 235 233 231 230 226 226 224 215 200 243 251
290 290 288 286 283 281 280 283 284 284 284 283 283 285 280 279 275 267 266 264 259 260 260 258 259 255 248 243 242 245 243 239 238 234 234 232 228 227 227 229 224 227 243 248
290 290 290 291 289 285 280 282 284 285 288 288 286 284 279 278 273 265 267 270 263 263 263 261 260 260 256 254 248 244 244 243 239 236 233 231 230 226 226 231 230 230 236 243
295 293 290 291 290 289 287 286 285 284 288 289 288 284 284 274 269 269 266 264 267 270 275 275 274 268 260 255 252 249 241 241 238 238 234 229 229 228 225 226 225 224 232 238
301 298 297 296 294 291 290 288 288 287 282 278 282 286 282 265 264 262 263 268 272 273 273 276 274 272 272 258 251 247 241 237 237 233 234 229 227 226 225 223 225 223 227 233
307 303 301 297 295 292 291 291 292 284 281 282 278 281 265 263 261 258 267 273 281 285 282 277 280 276 268 256 247 240 235 233 235 227 228 227 223 224 221 221 223 225 228 233
315 310 307 299 294 294 293 301 298 294 299 285 276 273 258 254 253 272 285 298 301 291 286 290 284 265 260 259 256 247 236 228 227 225 223 224 219 220 219 217 219 216 231 238
321 315 311 303 300 301 303 307 305 302 307 292 276 249 249 253 273 295 300 302 300 294 292 293 284 261 277 277 274 248 240 230 225 217 216 215 214 211 212 212 213 212 227 238
323 319 314 308 308 312 312 311 309 311 308 307 286 265 252 268 295 310 304 316 307 302 304 295 253 299 313 269 249 219 188 199 212 210 201 206 207 205 203 202 201 208 242 238
328 320 320 319 321 321 319 317 317 318 305 311 269 259 258 277 307 322 334 322 309 305 332 124 194 153 136 143 135 133 126 148 185 190 187 190 193 192 191 190 188 215 204 204
328 324 320 323 321 316 317 335 334 321 311 296 289 255 258 280 304 317 337 325 291 309 147 137 164 144 125 121 110 110 115 140 165 172 166 168 165 173 173 172 203 211 222 225
332 330 320 320 322 319 321 328 333 330 329 295 287 268 255 271 300 314 342 333 260 174 179 167 158 139 132 123 122 120 126 129 146 152 150 154 156 165 163 181 189 215 220 221
330 327 319 321 326 322 319 323 332 331 325 311 286 274 261 264 287 321 324 333 257 209 197 181 144 160 147 149 140 136 141 139 152 150 150 151 149 152 162 178 188 219 220 223
330 326 314 318 319 323 327 323 327 322 321 323 300 275 258 259 289 306 312 334 268 224 247 204 186 162 156 150 153 153 152 150 152 154 155 154 152 156 165 185 202 219 227 236
326 332 324 316 317 324 329 331 331 332 319 323 314 286 254 245 265 285 308 334 264 219 223 195 195 193 192 183 171 166 157 154 155 155 161 166 161 167 179 180 195 206 218 230
316 318 322 313 320 325 335 335 337 327 321 320 320 306 279 241 242 277 305 304 249 183 207 188 188 189 199 195 186 165 160 158 149 151 153 161 173 174 187 201 202 214 221 227
305 309 320 321 323 326 325 329 340 339 329 324 318 320 296 259 245 264 295 300 234 195 188 190 190 203 187 187 178 170 157 146 146 152 160 167 178 180 193 205 209 211 213 216
295 300 303 308 315 324 322 319 320 330 342 333 321 313 322 282 249 253 278 294 237 210 191 188 184 186 178 163 161 166 154 153 154 156 160 167 181 185 185 194 199 208 217 223
282 292 293 291 298 306 315 316 307 314 325 333 334 311 315 307 270 244 264 283 215 209 184 166 168 174 164 159 159 164 160 163 160 162 169 168 173 174 187 202 203 210 213 216
290 283 281 286 288 290 298 305 306 300 303 312 322 323 310 329 289 237 247 259 203 192 166 173 175 176 169 165 161 165 162 168 173 176 178 187 185 196 195 197 204 214 213 216
292 291 280 273 281 283 284 288 296 297 300 304 312 314 314 310 310 251 232 242 205 185 177 175 176 176 165 164 161 165 170 175 184 188 193 189 198 200 206 209 218 219 224 222
287 286 285 283 280 278 280 281 276 281 287 293 302 304 309 300 295 279 234 230 217 198 185 181 180 173 165 159 160 167 175 181 184 193 199 201 204 213 217 216 218 217 220 224
Height
10763 10761 10756 10749 10743 10744 10739 10735 10732 10726 10722 10723 10718 10714 10706 10702 10700 10709 10695 10692 10691 10692 10696 10699 10704 10709 10715 10727 10738 10745 10750 10766 10790 10790 10795 10810 10828 10832 10845 10852 10856 10864 10874 10880
10748 10744 10741 10738 10730 10726 10723 10719 10718 10714 10705 10703 10697 10698 10684 10683 10682 10683 10676 10671 10668 10673 10675 10675 10681 10688 10690 10699 10713 10721 10726 10736 10762 10768 10774 10789 10812 10821 10825 10837 10843 10848 10859 10867
10733 10727 10725 10723 10716 10713 10706 10702 10700 10697 10689 10681 10681 10680 10668 10664 10659 10659 10650 10650 10649 10647 10650 10655 10657 10663 10668 10673 10683 10696 10705 10711 10731 10750 10750 10773 10789 10802 10814 10827 10837 10840 10842 10848
10716 10715 10707 10702 10700 10698 10692 10686 10682 10676 10672 10667 10653 10668 10647 10645 10642 10630 10635 10629 10622 10626 10629 10633 10639 10641 10647 10651 10657 10665 10678 10686 10704 10717 10730 10752 10769 10780 10794 10812 10823 10824 10820 10830
10698 10700 10694 10685 10682 10679 10675 10672 10663 10655 10653 10648 10644 10642 10623 10630 10620 10618 10611 10606 10611 10606 10609 10613 10615 10618 10618 10623 10627 10634 10649 10659 10675 10689 10708 10720 10741 10759 10771 10797 10821 10808 10799 10817
10684 10681 10677 10668 10663 10660 10659 10656 10644 10637 10634 10625 10622 10625 10610 10607 10605 10597 10592 10596 10595 10589 10593 10593 10594 10595 10599 10602 10607 10614 10622 10639 10653 10670 10685 10694 10717 10739 10755 10772 10796 10808 10803 10810
10667 10664 10657 10650 10643 10638 10640 10638 10630 10621 10612 10603 10606 10603 10595 10588 10587 10581 10582 10584 10579 10577 10577 10576 10577 10574 10577 10578 10586 10593 10602 10612 10626 10646 10654 10674 10698 10720 10740 10754 10776 10790 10795 10804
10645 10638 10638 10633 10625 10620 10615 10617 10612 10609 10602 10585 10585 10585 10581 10577 10573 10572 10573 10568 10561 10567 10563 10559 10554 10553 10555 10557 10560 10565 10578 10584 10600 10617 10634 10656 10677 10701 10727 10742 10763 10777 10787 10790
10628 10615 10619 10613 10606 10603 10597 10598 10596 10592 10589 10581 10571 10572 10571 10563 10563 10562 10561 10555 10554 10556 10551 10547 10535 10532 10533 10535 10535 10541 10550 10558 10571 10595 10609 10636 10662 10683 10708 10731 10753 10766 10771 10777
10611 10603 10602 10597 10592 10588 10586 10582 10581 10579 10576 10570 10563 10564 10559 10557 10555 10552 10553 10546 10545 10540 10533 10523 10520 10517 10515 10513 10514 10517 10523 10535 10545 10568 10583 10613 10645 10671 10698 10721 10743 10754 10761 10768
10598 10592 10589 10583 10580 10579 10573 10570 10568 10564 10564 10561 10556 10554 10550 10551 10549 10547 10543 10536 10535 10526 10518 10511 10507 10503 10503 10500 10502 10503 10509 10518 10529 10546 10568 10596 10629 10656 10685 10712 10731 10743 10752 10765
10590 10582 10580 10574 10571 10568 10566 10564 10561 10557 10553 10551 10549 10549 10544 10544 10542 10542 10536 10532 10525 10514 10508 10503 10498 10494 10496 10491 10489 10494 10499 10508 10514 10530 10556 10581 10612 10640 10672 10703 10722 10741 10749 10754
10583 10577 10571 10570 10565 10564 10562 10560 10556 10553 10550 10547 10544 10542 10540 10537 10534 10534 10530 10523 10515 10506 10499 10495 10492 10493 10491 10484 10483 10486 10491 10498 10512 10526 10544 10571 10605 10636 10664 10694 10719 10739 10742 10743
10577 10572 10568 10564 10562 10560 10558 10556 10552 10549 10547 10543 10539 10535 10533 10531 10529 10526 10521 10517 10510 10504 10499 10496 10496 10494 10486 10482 10482 10485 10487 10501 10515 10529 10548 10568 10608 10634 10661 10689 10712 10733 10739 10737
10572 10567 10563 10561 10559 10557 10554 10552 10549 10545 10542 10539 10535 10531 10528 10526 10524 10521 10517 10513 10508 10502 10499 10497 10497 10497 10491 10486 10487 10487 10492 10506 10520 10533 10548 10578 10605 10633 10659 10681 10689 10714 10720 10724
10569 10564 10558 10557 10556 10553 10550 10548 10546 10541 10538 10535 10530 10527 10525 10523 10521 10517 10512 10510 10508 10504 10501 10501 10501 10501 10498 10494 10492 10494 10498 10504 10527 10543 10555 10581 10600 10623 10652 10673 10702 10714 10718 10720
10566 10561 10556 10553 10552 10550 10548 10545 10541 10537 10533 10530 10527 10524 10522 10520 10518 10514 10509 10507 10506 10504 10505 10509 10506 10503 10500 10499 10495 10494 10498 10505 10518 10539 10561 10585 10605 10629 10653 10671 10689 10693 10706 10705
10562 10559 10555 10550 10548 10548 10547 10542 10539 10535 10529 10524 10522 10519 10516 10516 10514 10511 10508 10505 10503 10502 10502 10505 10511 10510 10509 10506 10503 10501 10500 10506 10526 10546 10564 10585 10605 10622 10643 10661 10674 10685 10689 10696
10555 10553 10550 10547 10546 10544 10543 10539 10535 10531 10525 10522 10517 10515 10512 10511 10510 10507 10505 10503 10502 10502 10501 10503 10509 10512 10514 10512 10508 10509 10510 10518 10531 10550 10578 10594 10608 10620 10633 10649 10653 10667 10678 10684
10554 10548 10547 10544 10542 10540 10538 10535 10532 10528 10524 10520 10515 10511 10510 10508 10508 10504 10503 10501 10499 10500 10501 10504 10508 10509 10511 10513 10518 10517 10517 10519 10539 10561 10578 10598 10609 10617 10625 10632 10644 10657 10666 10674
10548 10544 10540 10534 10535 10536 10535 10532 10529 10526 10521 10517 10512 10508 10507 10507 10506 10503 10501 10499 10497 10497 10498 10502 10504 10501 10504 10509 10517 10526 10533 10539 10546 10558 10578 10587 10600 10609 10622 10631 10637 10648 10653 10660
10540 10539 10537 10533 10531 10531 10529 10528 10527 10524 10520 10514 10509 10504 10504 10504 10504 10501 10499 10497 10496 10495 10495 10498 10499 10500 10504 10506 10513 10530 10540 10548 10553 10564 10573 10584 10597 10605 10614 10619 10629 10641 10646 10651
10531 10533 10529 10528 10525 10524 10525 10524 10523 10521 10518 10513 10508 10502 10500 10500 10500 10498 10497 10496 10497 10495 10496 10500 10502 10503 10504 10505 10513 10524 10540 10548 10558 10570 10580 10585 10592 10599 10604 10610 10619 10627 10637 10644
10520 10524 10521 10518 10517 10518 10518 10518 10517 10516 10514 10510 10506 10500 10498 10496 10496 10495 10496 10496 10497 10497 10498 10501 10502 10505 10508 10511 10517 10528 10541 10550 10555 10559 10569 10579 10587 10592 10600 10608 10616 10623 10631 10633
10513 10511 10511 10510 10506 10508 10509 10511 10510 10509 10508 10506 10503 10498 10495 10494 10492 10493 10494 10496 10496 10499 10500 10502 10504 10506 10511 10519 10525 10533 10545 10550 10553 10559 10564 10575 10586 10590 10594 10602 10611 10617 10625 10630
10499 10501 10501 10498 10497 10499 10498 10499 10502 10501 10501 10500 10497 10494 10492 10490 10489 10489 10491 10492 10494 10499 10502 10504 10506 10510 10516 10521 10528 10536 10541 10545 10547 10554 10559 10569 10579 10583 10590 10597 10603 10609 10614 10621